Retour au catalogue

STARLINK-2391

ActifCommunicationsVLEO
NORAD 47810·PAYLOAD·🇺🇸 United States

Lancé Mar 11, 2021 depuis Cape Canaveral Space Force Station

Loading…

Prochains Passages (prochaines 24 heures)

TLE

FraisSource: CelesTrak SupGP

Époque: Sep 15, 2026, 01:10 UTC

1 47810C 21018Z   26258.04909722  .00033856  00000+0  10888-2 0  2587
2 47810  53.1575  94.4785 0001168  85.7040 255.1865 15.31682504    13

Suivez STARLINK-2391 en temps réel avec AllMySat

Download on the App Store